Regional Weather Roundup
Issued by NWS

Home | Current Version | Previous Version | Text Only | Print | Product List | Glossary On
Versions: 1 2 3 4 5 6 7 8 9 10 11 12 13 14 15 16 17 18 19 20 21 22 23 24 25 26 27 28 29 30 31 32 33 34 35 36 37 38 39 40 41 42 43 44 45 46 47 48 49 50
000
ASUS45 KABQ 251110
RWRNM
NEW MEXICO REGIONAL WEATHER ROUNDUP
NATIONAL WEATHER SERVICE ALBUQUERQUE NM
500 AM MDT WED APR 25 2018

NOTE: "FAIR" MEANS FEW OR NO CLOUDS BELOW 12,000 FEET AGL WITH NO
       SIGNIFICANT WEATHER OR OBSTRUCTIONS TO VISION.

      THIS PRODUCT IS RELEASED AS TWO VERSIONS.  ONE VERSION NEAR
      THE TOP OF THE HOUR CONTAINING PRELIMINARY DATA FROM ALBUQUERQUE
      AND OTHER STATIONS.  A FINAL VERSION WITH ADDITIONAL DATA IS
      ISSUED ABOUT 10 MINUTES AFTER THE HOUR.

NMZ501-503-504-510>518-251200-
NORTHWEST PLATEAU/NORTHCENTRAL MOUNTAINS

CITY           SKY/WX    TMP DP  RH WIND       PRES   REMARKS
FARMINGTON     FAIR      47  16  29 S5        30.17R
LOS ALAMOS     CLOUDY    40  32  73 SW10      30.31S WCI  34
SANTA FE       FAIR      39  31  72 S7        30.27S WCI  34
TAOS           CLOUDY    42  24  49 CALM      30.33R
ANGEL FIRE     CLOUDY    30  26  83 NE9       30.35S WCI  22

$$
NMZ402-403-502-505>509-251200-
WESTCENTRAL MOUNTAINS/SOUTHWEST MOUNTAINS

CITY           SKY/WX    TMP DP  RH WIND       PRES   REMARKS
GALLUP         FAIR      46  17  31 NE7       30.23R
GRANTS         FAIR      42  31  67 SE5       30.26S
SILVER CITY    FAIR      57  12  16 NW12      30.14R

$$
NMZ407-409-411-412-251200-
SOUTHERN DESERTS

CITY           SKY/WX    TMP DP  RH WIND       PRES   REMARKS
DEMING         FAIR      60  16  18 E6        30.11R
LAS CRUCES     FAIR      58  28  32 SW6       30.12R
HOLLOMAN AFB   FAIR      50  35  56 S7        30.12R
ALAMOGORDO     FAIR      48  34  57 S13       30.12R
T OR C         FAIR      50  37  61 N23G32    30.14R

$$
NMZ519>523-251200-
CENTRAL VALLEYS/CENTRAL HIGHLANDS

CITY           SKY/WX    TMP DP  RH WIND       PRES   REMARKS
ALBUQUERQUE    FAIR      48  34  58 E28G33    30.23R
DOUBLE EAGLE   FAIR      41  32  69 N14       30.25R
MORIARTY ARPT  CLOUDY    42  32  66 E7        30.33R
CLINES CORNERS CLOUDY    34  28  79 E12G22    30.32S WCI  25
BELEN          FAIR      47  35  64 NW14      30.22R
SOCORRO        FAIR      47  34  61 NW10G17   30.21S

$$
NMZ524>526-539-540-251200-
SOUTHCENTRAL MOUNTAINS

CITY           SKY/WX    TMP DP  RH WIND       PRES   REMARKS
RUIDOSO        NOT AVBL

$$
NMZ527>531-251200-
NORTHEAST HIGHLANDS/NORTHEAST PLAINS

CITY           SKY/WX    TMP DP  RH WIND       PRES   REMARKS
LAS VEGAS      CLOUDY    36  26  67 NE9       30.33S WCI  29
RATON          FAIR      34  25  69 N14       30.33F WCI  25
CLAYTON        CLOUDY    35  33  92 N12       30.32S WCI  27

$$
NMZ532>537-251200-
EASTCENTRAL PLAINS

CITY           SKY/WX    TMP DP  RH WIND       PRES   REMARKS
SANTA ROSA     CLOUDY    42  31  63 NE12      30.32S
TUCUMCARI      CLOUDY    43  33  68 NE14      30.33R
CANNON AFB     DRIZZLE   38  38 100 NE23G35   30.31S WCI  27
CLOVIS AIRPORT LGT RAIN  37  35  92 N28       30.31R WCI  25

$$
NMZ028-029-538-251200-
SOUTHEAST PLAINS

CITY           SKY/WX    TMP DP  RH WIND       PRES   REMARKS
ROSWELL        LGT RAIN  44  42  93 N15       30.31R FOG
ARTESIA        CLOUDY    48  37  66 N18G26    30.30R
CARLSBAD       CLOUDY    51  36  56 N22       30.27R
HOBBS          CLOUDY    46  37  71 NE32G41   30.24R


$$




USA.gov is the U.S. government's official web portal to all federal, state and local government web resources and services.